<?xml version="1.0"?>
<gpx xmlns="http://www.topografix.com/GPX/1/1" xmlns:xsi="http://www.w3.org/2001/XMLSchema-instance" version="1.1" creator="GPX RubyGem 1.0.0 -- http://dougfales.github.io/gpx/" xsi:schemaLocation="http://www.topografix.com/GPX/1/1 http://www.topografix.com/GPX/1/1/gpx.xsd">
  <metadata>
    <name/>
    <time>2026-05-07T11:02:01+00:00</time>
    <bound minlat="90.0" minlon="180.0" maxlat="-90.0" maxlon="-180.0"/>
  </metadata>
  <trk>
    <name/>
    <trkseg>
      <trkpt lat="46.941713" lon="10.362136">
        <time>1970-01-01T00:00:00+00:00</time>
        <ele>1853.0</ele>
      </trkpt>
      <trkpt lat="46.941372" lon="10.362141">
        <time>1970-01-01T00:00:00+00:00</time>
        <ele>1856.0</ele>
      </trkpt>
      <trkpt lat="46.941185" lon="10.362213">
        <time>1970-01-01T00:00:00+00:00</time>
        <ele>1860.0</ele>
      </trkpt>
      <trkpt lat="46.941021" lon="10.362344">
        <time>1970-01-01T00:00:00+00:00</time>
        <ele>1867.0</ele>
      </trkpt>
      <trkpt lat="46.940391" lon="10.362464">
        <time>1970-01-01T00:00:00+00:00</time>
        <ele>1879.0</ele>
      </trkpt>
      <trkpt lat="46.94018" lon="10.362408">
        <time>1970-01-01T00:00:00+00:00</time>
        <ele>1876.0</ele>
      </trkpt>
      <trkpt lat="46.940091" lon="10.36244">
        <time>1970-01-01T00:00:00+00:00</time>
        <ele>1878.0</ele>
      </trkpt>
      <trkpt lat="46.939485" lon="10.362402">
        <time>1970-01-01T00:00:00+00:00</time>
        <ele>1877.0</ele>
      </trkpt>
      <trkpt lat="46.938807" lon="10.362524">
        <time>1970-01-01T00:00:00+00:00</time>
        <ele>1888.0</ele>
      </trkpt>
      <trkpt lat="46.938415" lon="10.362622">
        <time>1970-01-01T00:00:00+00:00</time>
        <ele>1891.0</ele>
      </trkpt>
      <trkpt lat="46.937963" lon="10.362693">
        <time>1970-01-01T00:00:00+00:00</time>
        <ele>1893.0</ele>
      </trkpt>
      <trkpt lat="46.937401" lon="10.362807">
        <time>1970-01-01T00:00:00+00:00</time>
        <ele>1900.0</ele>
      </trkpt>
      <trkpt lat="46.93692" lon="10.36283">
        <time>1970-01-01T00:00:00+00:00</time>
        <ele>1907.0</ele>
      </trkpt>
      <trkpt lat="46.93619" lon="10.362867">
        <time>1970-01-01T00:00:00+00:00</time>
        <ele>1918.0</ele>
      </trkpt>
      <trkpt lat="46.935637" lon="10.362954">
        <time>1970-01-01T00:00:00+00:00</time>
        <ele>1924.0</ele>
      </trkpt>
      <trkpt lat="46.935095" lon="10.363126">
        <time>1970-01-01T00:00:00+00:00</time>
        <ele>1941.0</ele>
      </trkpt>
      <trkpt lat="46.934884" lon="10.362966">
        <time>1970-01-01T00:00:00+00:00</time>
        <ele>1943.0</ele>
      </trkpt>
      <trkpt lat="46.933795" lon="10.362693">
        <time>1970-01-01T00:00:00+00:00</time>
        <ele>1963.0</ele>
      </trkpt>
      <trkpt lat="46.933077" lon="10.362668">
        <time>1970-01-01T00:00:00+00:00</time>
        <ele>1977.0</ele>
      </trkpt>
      <trkpt lat="46.932639" lon="10.362543">
        <time>1970-01-01T00:00:00+00:00</time>
        <ele>1980.0</ele>
      </trkpt>
      <trkpt lat="46.932146" lon="10.362608">
        <time>1970-01-01T00:00:00+00:00</time>
        <ele>1989.0</ele>
      </trkpt>
      <trkpt lat="46.932055" lon="10.362794">
        <time>1970-01-01T00:00:00+00:00</time>
        <ele>2002.0</ele>
      </trkpt>
      <trkpt lat="46.931795" lon="10.362886">
        <time>1970-01-01T00:00:00+00:00</time>
        <ele>2012.0</ele>
      </trkpt>
      <trkpt lat="46.93122" lon="10.363036">
        <time>1970-01-01T00:00:00+00:00</time>
        <ele>2025.0</ele>
      </trkpt>
      <trkpt lat="46.930638" lon="10.36294">
        <time>1970-01-01T00:00:00+00:00</time>
        <ele>2026.0</ele>
      </trkpt>
      <trkpt lat="46.930425" lon="10.363159">
        <time>1970-01-01T00:00:00+00:00</time>
        <ele>2033.0</ele>
      </trkpt>
      <trkpt lat="46.930295" lon="10.363156">
        <time>1970-01-01T00:00:00+00:00</time>
        <ele>2034.0</ele>
      </trkpt>
      <trkpt lat="46.93014" lon="10.362961">
        <time>1970-01-01T00:00:00+00:00</time>
        <ele>2034.0</ele>
      </trkpt>
      <trkpt lat="46.930032" lon="10.362747">
        <time>1970-01-01T00:00:00+00:00</time>
        <ele>2030.0</ele>
      </trkpt>
      <trkpt lat="46.929943" lon="10.362717">
        <time>1970-01-01T00:00:00+00:00</time>
        <ele>2031.0</ele>
      </trkpt>
      <trkpt lat="46.929374" lon="10.362665">
        <time>1970-01-01T00:00:00+00:00</time>
        <ele>2033.0</ele>
      </trkpt>
      <trkpt lat="46.92909" lon="10.362813">
        <time>1970-01-01T00:00:00+00:00</time>
        <ele>2043.0</ele>
      </trkpt>
      <trkpt lat="46.9288" lon="10.363041">
        <time>1970-01-01T00:00:00+00:00</time>
        <ele>2058.0</ele>
      </trkpt>
      <trkpt lat="46.928704" lon="10.362871">
        <time>1970-01-01T00:00:00+00:00</time>
        <ele>2059.0</ele>
      </trkpt>
      <trkpt lat="46.927872" lon="10.362654">
        <time>1970-01-01T00:00:00+00:00</time>
        <ele>2074.0</ele>
      </trkpt>
      <trkpt lat="46.927315" lon="10.362697">
        <time>1970-01-01T00:00:00+00:00</time>
        <ele>2083.0</ele>
      </trkpt>
      <trkpt lat="46.92667" lon="10.362675">
        <time>1970-01-01T00:00:00+00:00</time>
        <ele>2091.0</ele>
      </trkpt>
      <trkpt lat="46.926625" lon="10.362621">
        <time>1970-01-01T00:00:00+00:00</time>
        <ele>2090.0</ele>
      </trkpt>
      <trkpt lat="46.92644" lon="10.362589">
        <time>1970-01-01T00:00:00+00:00</time>
        <ele>2092.0</ele>
      </trkpt>
      <trkpt lat="46.925969" lon="10.36261">
        <time>1970-01-01T00:00:00+00:00</time>
        <ele>2095.0</ele>
      </trkpt>
      <trkpt lat="46.925698" lon="10.362703">
        <time>1970-01-01T00:00:00+00:00</time>
        <ele>2097.0</ele>
      </trkpt>
      <trkpt lat="46.925276" lon="10.362923">
        <time>1970-01-01T00:00:00+00:00</time>
        <ele>2101.0</ele>
      </trkpt>
      <trkpt lat="46.925052" lon="10.362972">
        <time>1970-01-01T00:00:00+00:00</time>
        <ele>2101.0</ele>
      </trkpt>
      <trkpt lat="46.924639" lon="10.363197">
        <time>1970-01-01T00:00:00+00:00</time>
        <ele>2107.0</ele>
      </trkpt>
      <trkpt lat="46.924564" lon="10.363169">
        <time>1970-01-01T00:00:00+00:00</time>
        <ele>2108.0</ele>
      </trkpt>
      <trkpt lat="46.924431" lon="10.363001">
        <time>1970-01-01T00:00:00+00:00</time>
        <ele>2109.0</ele>
      </trkpt>
      <trkpt lat="46.924303" lon="10.36296">
        <time>1970-01-01T00:00:00+00:00</time>
        <ele>2111.0</ele>
      </trkpt>
      <trkpt lat="46.924225" lon="10.36298">
        <time>1970-01-01T00:00:00+00:00</time>
        <ele>2113.0</ele>
      </trkpt>
      <trkpt lat="46.924141" lon="10.362927">
        <time>1970-01-01T00:00:00+00:00</time>
        <ele>2114.0</ele>
      </trkpt>
      <trkpt lat="46.92389" lon="10.362861">
        <time>1970-01-01T00:00:00+00:00</time>
        <ele>2119.0</ele>
      </trkpt>
      <trkpt lat="46.923689" lon="10.362861">
        <time>1970-01-01T00:00:00+00:00</time>
        <ele>2124.0</ele>
      </trkpt>
      <trkpt lat="46.923215" lon="10.363006">
        <time>1970-01-01T00:00:00+00:00</time>
        <ele>2134.0</ele>
      </trkpt>
      <trkpt lat="46.923115" lon="10.363097">
        <time>1970-01-01T00:00:00+00:00</time>
        <ele>2136.0</ele>
      </trkpt>
      <trkpt lat="46.923003" lon="10.363139">
        <time>1970-01-01T00:00:00+00:00</time>
        <ele>2139.0</ele>
      </trkpt>
      <trkpt lat="46.92296" lon="10.36324">
        <time>1970-01-01T00:00:00+00:00</time>
        <ele>2143.0</ele>
      </trkpt>
      <trkpt lat="46.922832" lon="10.362976">
        <time>1970-01-01T00:00:00+00:00</time>
        <ele>2139.0</ele>
      </trkpt>
      <trkpt lat="46.922717" lon="10.362909">
        <time>1970-01-01T00:00:00+00:00</time>
        <ele>2141.0</ele>
      </trkpt>
      <trkpt lat="46.922591" lon="10.36287">
        <time>1970-01-01T00:00:00+00:00</time>
        <ele>2143.0</ele>
      </trkpt>
      <trkpt lat="46.922454" lon="10.362869">
        <time>1970-01-01T00:00:00+00:00</time>
        <ele>2146.0</ele>
      </trkpt>
      <trkpt lat="46.922392" lon="10.362829">
        <time>1970-01-01T00:00:00+00:00</time>
        <ele>2147.0</ele>
      </trkpt>
      <trkpt lat="46.922264" lon="10.362552">
        <time>1970-01-01T00:00:00+00:00</time>
        <ele>2142.0</ele>
      </trkpt>
      <trkpt lat="46.921981" lon="10.362371">
        <time>1970-01-01T00:00:00+00:00</time>
        <ele>2145.0</ele>
      </trkpt>
      <trkpt lat="46.921855" lon="10.36233">
        <time>1970-01-01T00:00:00+00:00</time>
        <ele>2147.0</ele>
      </trkpt>
      <trkpt lat="46.920881" lon="10.361731">
        <time>1970-01-01T00:00:00+00:00</time>
        <ele>2157.0</ele>
      </trkpt>
      <trkpt lat="46.920324" lon="10.36156">
        <time>1970-01-01T00:00:00+00:00</time>
        <ele>2162.0</ele>
      </trkpt>
      <trkpt lat="46.919416" lon="10.361345">
        <time>1970-01-01T00:00:00+00:00</time>
        <ele>2172.0</ele>
      </trkpt>
      <trkpt lat="46.918669" lon="10.3612">
        <time>1970-01-01T00:00:00+00:00</time>
        <ele>2184.0</ele>
      </trkpt>
      <trkpt lat="46.91795" lon="10.361238">
        <time>1970-01-01T00:00:00+00:00</time>
        <ele>2198.0</ele>
      </trkpt>
      <trkpt lat="46.917379" lon="10.361216">
        <time>1970-01-01T00:00:00+00:00</time>
        <ele>2209.0</ele>
      </trkpt>
      <trkpt lat="46.916836" lon="10.361045">
        <time>1970-01-01T00:00:00+00:00</time>
        <ele>2217.0</ele>
      </trkpt>
      <trkpt lat="46.916001" lon="10.361366">
        <time>1970-01-01T00:00:00+00:00</time>
        <ele>2233.0</ele>
      </trkpt>
      <trkpt lat="46.915854" lon="10.36186">
        <time>1970-01-01T00:00:00+00:00</time>
        <ele>2243.0</ele>
      </trkpt>
      <trkpt lat="46.915869" lon="10.362525">
        <time>1970-01-01T00:00:00+00:00</time>
        <ele>2261.0</ele>
      </trkpt>
      <trkpt lat="46.915385" lon="10.362911">
        <time>1970-01-01T00:00:00+00:00</time>
        <ele>2276.0</ele>
      </trkpt>
      <trkpt lat="46.914344" lon="10.363341">
        <time>1970-01-01T00:00:00+00:00</time>
        <ele>2293.0</ele>
      </trkpt>
      <trkpt lat="46.913773" lon="10.363662">
        <time>1970-01-01T00:00:00+00:00</time>
        <ele>2304.0</ele>
      </trkpt>
      <trkpt lat="46.913421" lon="10.364328">
        <time>1970-01-01T00:00:00+00:00</time>
        <ele>2319.0</ele>
      </trkpt>
      <trkpt lat="46.912996" lon="10.364692">
        <time>1970-01-01T00:00:00+00:00</time>
        <ele>2332.0</ele>
      </trkpt>
      <trkpt lat="46.912615" lon="10.365915">
        <time>1970-01-01T00:00:00+00:00</time>
        <ele>2364.0</ele>
      </trkpt>
      <trkpt lat="46.912248" lon="10.366795">
        <time>1970-01-01T00:00:00+00:00</time>
        <ele>2384.0</ele>
      </trkpt>
      <trkpt lat="46.911941" lon="10.367439">
        <time>1970-01-01T00:00:00+00:00</time>
        <ele>2400.0</ele>
      </trkpt>
      <trkpt lat="46.911428" lon="10.368169">
        <time>1970-01-01T00:00:00+00:00</time>
        <ele>2415.0</ele>
      </trkpt>
      <trkpt lat="46.911281" lon="10.369606">
        <time>1970-01-01T00:00:00+00:00</time>
        <ele>2453.0</ele>
      </trkpt>
      <trkpt lat="46.911017" lon="10.370851">
        <time>1970-01-01T00:00:00+00:00</time>
        <ele>2488.0</ele>
      </trkpt>
      <trkpt lat="46.910914" lon="10.37246">
        <time>1970-01-01T00:00:00+00:00</time>
        <ele>2539.0</ele>
      </trkpt>
      <trkpt lat="46.911647" lon="10.371602">
        <time>1970-01-01T00:00:00+00:00</time>
        <ele>2541.0</ele>
      </trkpt>
      <trkpt lat="46.912043" lon="10.371516">
        <time>1970-01-01T00:00:00+00:00</time>
        <ele>2558.0</ele>
      </trkpt>
      <trkpt lat="46.912883" lon="10.371476">
        <time>1970-01-01T00:00:00+00:00</time>
        <ele>2576.0</ele>
      </trkpt>
      <trkpt lat="46.912883" lon="10.371476">
        <time>1970-01-01T00:00:00+00:00</time>
        <ele>2576.0</ele>
      </trkpt>
      <trkpt lat="46.912043" lon="10.371516">
        <time>1970-01-01T00:00:00+00:00</time>
        <ele>2558.0</ele>
      </trkpt>
      <trkpt lat="46.911647" lon="10.371602">
        <time>1970-01-01T00:00:00+00:00</time>
        <ele>2541.0</ele>
      </trkpt>
      <trkpt lat="46.910914" lon="10.37246">
        <time>1970-01-01T00:00:00+00:00</time>
        <ele>2539.0</ele>
      </trkpt>
      <trkpt lat="46.911017" lon="10.370851">
        <time>1970-01-01T00:00:00+00:00</time>
        <ele>2488.0</ele>
      </trkpt>
      <trkpt lat="46.911281" lon="10.369606">
        <time>1970-01-01T00:00:00+00:00</time>
        <ele>2453.0</ele>
      </trkpt>
      <trkpt lat="46.911428" lon="10.368169">
        <time>1970-01-01T00:00:00+00:00</time>
        <ele>2415.0</ele>
      </trkpt>
      <trkpt lat="46.911941" lon="10.367439">
        <time>1970-01-01T00:00:00+00:00</time>
        <ele>2400.0</ele>
      </trkpt>
      <trkpt lat="46.912248" lon="10.366795">
        <time>1970-01-01T00:00:00+00:00</time>
        <ele>2384.0</ele>
      </trkpt>
      <trkpt lat="46.912615" lon="10.365915">
        <time>1970-01-01T00:00:00+00:00</time>
        <ele>2364.0</ele>
      </trkpt>
      <trkpt lat="46.912996" lon="10.364692">
        <time>1970-01-01T00:00:00+00:00</time>
        <ele>2332.0</ele>
      </trkpt>
      <trkpt lat="46.913421" lon="10.364328">
        <time>1970-01-01T00:00:00+00:00</time>
        <ele>2319.0</ele>
      </trkpt>
      <trkpt lat="46.913773" lon="10.363662">
        <time>1970-01-01T00:00:00+00:00</time>
        <ele>2304.0</ele>
      </trkpt>
      <trkpt lat="46.914344" lon="10.363341">
        <time>1970-01-01T00:00:00+00:00</time>
        <ele>2293.0</ele>
      </trkpt>
      <trkpt lat="46.915385" lon="10.362911">
        <time>1970-01-01T00:00:00+00:00</time>
        <ele>2276.0</ele>
      </trkpt>
      <trkpt lat="46.915869" lon="10.362525">
        <time>1970-01-01T00:00:00+00:00</time>
        <ele>2261.0</ele>
      </trkpt>
      <trkpt lat="46.915854" lon="10.36186">
        <time>1970-01-01T00:00:00+00:00</time>
        <ele>2243.0</ele>
      </trkpt>
      <trkpt lat="46.916001" lon="10.361366">
        <time>1970-01-01T00:00:00+00:00</time>
        <ele>2233.0</ele>
      </trkpt>
      <trkpt lat="46.916836" lon="10.361045">
        <time>1970-01-01T00:00:00+00:00</time>
        <ele>2217.0</ele>
      </trkpt>
      <trkpt lat="46.917379" lon="10.361216">
        <time>1970-01-01T00:00:00+00:00</time>
        <ele>2209.0</ele>
      </trkpt>
      <trkpt lat="46.91795" lon="10.361238">
        <time>1970-01-01T00:00:00+00:00</time>
        <ele>2198.0</ele>
      </trkpt>
      <trkpt lat="46.918669" lon="10.3612">
        <time>1970-01-01T00:00:00+00:00</time>
        <ele>2184.0</ele>
      </trkpt>
      <trkpt lat="46.919416" lon="10.361345">
        <time>1970-01-01T00:00:00+00:00</time>
        <ele>2172.0</ele>
      </trkpt>
      <trkpt lat="46.920324" lon="10.36156">
        <time>1970-01-01T00:00:00+00:00</time>
        <ele>2162.0</ele>
      </trkpt>
      <trkpt lat="46.920881" lon="10.361731">
        <time>1970-01-01T00:00:00+00:00</time>
        <ele>2157.0</ele>
      </trkpt>
      <trkpt lat="46.921855" lon="10.36233">
        <time>1970-01-01T00:00:00+00:00</time>
        <ele>2147.0</ele>
      </trkpt>
      <trkpt lat="46.921981" lon="10.362371">
        <time>1970-01-01T00:00:00+00:00</time>
        <ele>2145.0</ele>
      </trkpt>
      <trkpt lat="46.922264" lon="10.362552">
        <time>1970-01-01T00:00:00+00:00</time>
        <ele>2142.0</ele>
      </trkpt>
      <trkpt lat="46.922392" lon="10.362829">
        <time>1970-01-01T00:00:00+00:00</time>
        <ele>2147.0</ele>
      </trkpt>
      <trkpt lat="46.922454" lon="10.362869">
        <time>1970-01-01T00:00:00+00:00</time>
        <ele>2146.0</ele>
      </trkpt>
      <trkpt lat="46.922591" lon="10.36287">
        <time>1970-01-01T00:00:00+00:00</time>
        <ele>2143.0</ele>
      </trkpt>
      <trkpt lat="46.922717" lon="10.362909">
        <time>1970-01-01T00:00:00+00:00</time>
        <ele>2141.0</ele>
      </trkpt>
      <trkpt lat="46.922832" lon="10.362976">
        <time>1970-01-01T00:00:00+00:00</time>
        <ele>2139.0</ele>
      </trkpt>
      <trkpt lat="46.92296" lon="10.36324">
        <time>1970-01-01T00:00:00+00:00</time>
        <ele>2143.0</ele>
      </trkpt>
      <trkpt lat="46.923003" lon="10.363139">
        <time>1970-01-01T00:00:00+00:00</time>
        <ele>2139.0</ele>
      </trkpt>
      <trkpt lat="46.923115" lon="10.363097">
        <time>1970-01-01T00:00:00+00:00</time>
        <ele>2136.0</ele>
      </trkpt>
      <trkpt lat="46.923215" lon="10.363006">
        <time>1970-01-01T00:00:00+00:00</time>
        <ele>2134.0</ele>
      </trkpt>
      <trkpt lat="46.923689" lon="10.362861">
        <time>1970-01-01T00:00:00+00:00</time>
        <ele>2124.0</ele>
      </trkpt>
      <trkpt lat="46.92389" lon="10.362861">
        <time>1970-01-01T00:00:00+00:00</time>
        <ele>2119.0</ele>
      </trkpt>
      <trkpt lat="46.924141" lon="10.362927">
        <time>1970-01-01T00:00:00+00:00</time>
        <ele>2114.0</ele>
      </trkpt>
      <trkpt lat="46.924225" lon="10.36298">
        <time>1970-01-01T00:00:00+00:00</time>
        <ele>2113.0</ele>
      </trkpt>
      <trkpt lat="46.924303" lon="10.36296">
        <time>1970-01-01T00:00:00+00:00</time>
        <ele>2111.0</ele>
      </trkpt>
      <trkpt lat="46.924431" lon="10.363001">
        <time>1970-01-01T00:00:00+00:00</time>
        <ele>2109.0</ele>
      </trkpt>
      <trkpt lat="46.924564" lon="10.363169">
        <time>1970-01-01T00:00:00+00:00</time>
        <ele>2108.0</ele>
      </trkpt>
      <trkpt lat="46.924639" lon="10.363197">
        <time>1970-01-01T00:00:00+00:00</time>
        <ele>2107.0</ele>
      </trkpt>
      <trkpt lat="46.925052" lon="10.362972">
        <time>1970-01-01T00:00:00+00:00</time>
        <ele>2101.0</ele>
      </trkpt>
      <trkpt lat="46.925276" lon="10.362923">
        <time>1970-01-01T00:00:00+00:00</time>
        <ele>2101.0</ele>
      </trkpt>
      <trkpt lat="46.925698" lon="10.362703">
        <time>1970-01-01T00:00:00+00:00</time>
        <ele>2097.0</ele>
      </trkpt>
      <trkpt lat="46.925969" lon="10.36261">
        <time>1970-01-01T00:00:00+00:00</time>
        <ele>2095.0</ele>
      </trkpt>
      <trkpt lat="46.92644" lon="10.362589">
        <time>1970-01-01T00:00:00+00:00</time>
        <ele>2092.0</ele>
      </trkpt>
      <trkpt lat="46.926625" lon="10.362621">
        <time>1970-01-01T00:00:00+00:00</time>
        <ele>2090.0</ele>
      </trkpt>
      <trkpt lat="46.92667" lon="10.362675">
        <time>1970-01-01T00:00:00+00:00</time>
        <ele>2091.0</ele>
      </trkpt>
      <trkpt lat="46.927315" lon="10.362697">
        <time>1970-01-01T00:00:00+00:00</time>
        <ele>2083.0</ele>
      </trkpt>
      <trkpt lat="46.927872" lon="10.362654">
        <time>1970-01-01T00:00:00+00:00</time>
        <ele>2074.0</ele>
      </trkpt>
      <trkpt lat="46.928704" lon="10.362871">
        <time>1970-01-01T00:00:00+00:00</time>
        <ele>2059.0</ele>
      </trkpt>
      <trkpt lat="46.9288" lon="10.363041">
        <time>1970-01-01T00:00:00+00:00</time>
        <ele>2058.0</ele>
      </trkpt>
      <trkpt lat="46.92909" lon="10.362813">
        <time>1970-01-01T00:00:00+00:00</time>
        <ele>2043.0</ele>
      </trkpt>
      <trkpt lat="46.929374" lon="10.362665">
        <time>1970-01-01T00:00:00+00:00</time>
        <ele>2033.0</ele>
      </trkpt>
      <trkpt lat="46.929943" lon="10.362717">
        <time>1970-01-01T00:00:00+00:00</time>
        <ele>2031.0</ele>
      </trkpt>
      <trkpt lat="46.930032" lon="10.362747">
        <time>1970-01-01T00:00:00+00:00</time>
        <ele>2030.0</ele>
      </trkpt>
      <trkpt lat="46.93014" lon="10.362961">
        <time>1970-01-01T00:00:00+00:00</time>
        <ele>2034.0</ele>
      </trkpt>
      <trkpt lat="46.930295" lon="10.363156">
        <time>1970-01-01T00:00:00+00:00</time>
        <ele>2034.0</ele>
      </trkpt>
      <trkpt lat="46.930425" lon="10.363159">
        <time>1970-01-01T00:00:00+00:00</time>
        <ele>2033.0</ele>
      </trkpt>
      <trkpt lat="46.930638" lon="10.36294">
        <time>1970-01-01T00:00:00+00:00</time>
        <ele>2026.0</ele>
      </trkpt>
      <trkpt lat="46.93122" lon="10.363036">
        <time>1970-01-01T00:00:00+00:00</time>
        <ele>2025.0</ele>
      </trkpt>
      <trkpt lat="46.931795" lon="10.362886">
        <time>1970-01-01T00:00:00+00:00</time>
        <ele>2012.0</ele>
      </trkpt>
      <trkpt lat="46.932055" lon="10.362794">
        <time>1970-01-01T00:00:00+00:00</time>
        <ele>2002.0</ele>
      </trkpt>
      <trkpt lat="46.932146" lon="10.362608">
        <time>1970-01-01T00:00:00+00:00</time>
        <ele>1989.0</ele>
      </trkpt>
      <trkpt lat="46.932639" lon="10.362543">
        <time>1970-01-01T00:00:00+00:00</time>
        <ele>1980.0</ele>
      </trkpt>
      <trkpt lat="46.933077" lon="10.362668">
        <time>1970-01-01T00:00:00+00:00</time>
        <ele>1977.0</ele>
      </trkpt>
      <trkpt lat="46.933795" lon="10.362693">
        <time>1970-01-01T00:00:00+00:00</time>
        <ele>1963.0</ele>
      </trkpt>
      <trkpt lat="46.934884" lon="10.362966">
        <time>1970-01-01T00:00:00+00:00</time>
        <ele>1943.0</ele>
      </trkpt>
      <trkpt lat="46.935095" lon="10.363126">
        <time>1970-01-01T00:00:00+00:00</time>
        <ele>1941.0</ele>
      </trkpt>
      <trkpt lat="46.935637" lon="10.362954">
        <time>1970-01-01T00:00:00+00:00</time>
        <ele>1924.0</ele>
      </trkpt>
      <trkpt lat="46.93619" lon="10.362867">
        <time>1970-01-01T00:00:00+00:00</time>
        <ele>1918.0</ele>
      </trkpt>
      <trkpt lat="46.93692" lon="10.36283">
        <time>1970-01-01T00:00:00+00:00</time>
        <ele>1907.0</ele>
      </trkpt>
      <trkpt lat="46.937401" lon="10.362807">
        <time>1970-01-01T00:00:00+00:00</time>
        <ele>1900.0</ele>
      </trkpt>
      <trkpt lat="46.937963" lon="10.362693">
        <time>1970-01-01T00:00:00+00:00</time>
        <ele>1893.0</ele>
      </trkpt>
      <trkpt lat="46.938415" lon="10.362622">
        <time>1970-01-01T00:00:00+00:00</time>
        <ele>1891.0</ele>
      </trkpt>
      <trkpt lat="46.938807" lon="10.362524">
        <time>1970-01-01T00:00:00+00:00</time>
        <ele>1888.0</ele>
      </trkpt>
      <trkpt lat="46.939485" lon="10.362402">
        <time>1970-01-01T00:00:00+00:00</time>
        <ele>1877.0</ele>
      </trkpt>
      <trkpt lat="46.940091" lon="10.36244">
        <time>1970-01-01T00:00:00+00:00</time>
        <ele>1878.0</ele>
      </trkpt>
      <trkpt lat="46.94018" lon="10.362408">
        <time>1970-01-01T00:00:00+00:00</time>
        <ele>1876.0</ele>
      </trkpt>
      <trkpt lat="46.940391" lon="10.362464">
        <time>1970-01-01T00:00:00+00:00</time>
        <ele>1879.0</ele>
      </trkpt>
      <trkpt lat="46.941021" lon="10.362344">
        <time>1970-01-01T00:00:00+00:00</time>
        <ele>1867.0</ele>
      </trkpt>
      <trkpt lat="46.941185" lon="10.362213">
        <time>1970-01-01T00:00:00+00:00</time>
        <ele>1860.0</ele>
      </trkpt>
      <trkpt lat="46.941372" lon="10.362141">
        <time>1970-01-01T00:00:00+00:00</time>
        <ele>1856.0</ele>
      </trkpt>
      <trkpt lat="46.941713" lon="10.362136">
        <time>1970-01-01T00:00:00+00:00</time>
        <ele>1853.0</ele>
      </trkpt>
    </trkseg>
  </trk>
</gpx>
